Location: Sternwarte-Kraichtal
(49.1689°N, 8.6996°E)
Time: 19:33:49
(UTC+02:00)

Vanguard 2 Rocket - Pass Details

Date: 26 May 2022
Orbit: 553 x 3323 km, 32.9° (Epoch: 02 July)

Event Time Altitude Azimuth Distance (km) Brightness Sun altitude
Rises 14:02:10 0° 220° (SW) 7,287 11.9 60.9°
Reaches altitude 10° 14:07:59 10° 212° (SSW) 6,262 11.8 60.6°
Maximum altitude 14:23:44 32° 159° (SSE) 4,158 11.1 59.5°
Drops below altitude 10° 14:35:42 10° 104° (ESE) 4,771 10.6 58.4°
Sets 14:39:21 0° 95° (E) 5,407 10.7 58.1°
